Temperature
15 15 14 14 14 14 14 14 14 14 13 13 13 13 13 13 13 13 13 13 13 12 12 12 12 12 12 13 13 13 13 13 13 13 13 14 14 14 14 14 14 14 14
15 14 14 14 14 14 14 14 13 13 13 13 13 13 12 12 12 12 12 12 12 12 12 12 12 12 12 12 12 12 12 12 12 12 13 13 13 13 13 14 14 14 14
14 14 14 14 14 14 14 13 13 13 13 13 12 12 12 12 12 12 12 12 11 11 11 11 11 11 12 12 12 12 12 12 12 12 12 12 13 13 13 13 13 13 13
14 14 14 14 14 14 13 13 13 13 13 12 12 12 12 12 12 11 11 11 11 11 11 11 11 11 11 11 11 11 11 12 12 12 12 12 12 12 12 13 13 13 13
14 14 14 14 14 13 13 13 13 13 12 12 12 12 12 12 11 11 11 11 11 11 11 11 11 10 10 11 11 11 11 11 11 11 11 11 12 12 12 12 12 12 13
14 14 14 14 13 13 13 13 12 12 12 12 12 12 12 11 11 11 11 11 11 11 10 10 10 10 10 10 10 10 10 10 10 11 11 11 11 11 12 12 12 12 12
14 14 14 13 13 13 12 12 12 12 12 12 12 12 11 11 11 11 11 10 10 10 10 10 10 10 10 10 10 10 10 10 10 10 10 10 11 11 11 11 11 11 12
14 14 13 13 13 13 12 12 12 12 12 11 11 11 11 11 11 11 10 10 10 10 10 10 10 10 10 9 10 10 10 10 10 10 10 10 10 11 10 11 11 11 11
14 13 13 13 13 12 12 12 12 11 11 11 11 11 11 11 10 10 10 10 10 10 10 9 9 9 9 9 9 9 9 10 10 10 10 10 10 10 10 10 10 10 11
14 13 13 13 12 12 12 12 11 11 11 11 11 11 10 10 10 10 10 9 9 9 9 9 9 9 9 9 9 9 9 9 9 9 9 10 10 10 10 10 10 10 10
13 13 13 12 12 12 12 11 11 11 11 11 10 10 10 10 10 9 9 9 9 9 9 9 9 8 8 8 8 8 8 8 8 9 9 9 9 9 10 10 10 10 10
13 13 12 12 12 12 11 11 11 11 11 10 10 10 10 9 9 9 9 8 8 8 8 8 8 8 8 8 8 8 8 8 8 8 8 9 9 9 9 9 9 9 9
13 12 12 12 11 11 11 11 11 10 10 10 10 9 9 9 9 9 8 8 8 8 8 7 7 7 7 7 8 8 7 7 7 7 8 8 8 8 8 9 9 9 9
12 12 12 11 11 11 11 10 10 10 10 9 9 9 9 9 8 8 8 8 8 7 7 7 7 7 7 7 7 7 7 7 7 7 7 7 7 8 8 8 8 8 8
12 12 11 11 11 10 10 10 10 10 9 9 9 8 8 8 8 8 7 7 7 7 7 7 7 7 7 6 6 6 6 6 6 6 6 7 7 7 7 7 7 7 7
12 11 11 11 10 10 10 10 9 9 9 9 8 8 8 8 8 7 7 7 7 6 6 6 6 6 6 6 6 6 6 6 6 6 6 6 6 6 6 7 7 7 7
11 11 10 10 10 10 9 9 9 9 8 8 8 8 8 7 7 7 7 7 6 6 6 6 5 5 5 5 5 5 5 5 5 5 6 6 6 6 6 6 6 6 7
11 10 10 10 9 9 9 9 8 8 8 8 8 8 7 7 7 7 6 6 6 6 5 5 5 5 4 4 4 4 5 5 5 5 5 5 5 5 5 6 6 6 6
10 10 10 9 9 9 8 8 8 8 7 7 7 7 7 7 6 6 6 6 5 5 5 5 4 4 4 4 4 4 4 4 4 4 5 5 5 5 5 5 5 5 5
10 9 9 9 9 8 8 8 7 7 7 7 7 7 7 6 6 6 6 5 5 5 4 4 4 4 4 4 4 4 4 4 4 4 4 4 4 4 5 5 5 5 5
10 9 9 8 8 8 8 7 7 7 7 6 6 6 6 6 5 5 5 5 5 4 4 4 4 3 3 3 3 3 3 3 3 3 4 4 4 4 4 4 4 5 5
9 9 8 8 8 7 7 7 7 6 6 6 6 6 5 5 5 5 4 4 4 4 4 3 3 3 3 3 3 3 3 3 3 3 3 3 3 4 4 4 4 4 4
9 8 8 7 7 7 7 6 6 6 6 5 5 5 5 5 4 4 4 4 4 4 3 3 3 3 3 3 3 3 3 3 3 3 3 3 3 3 4 4 4 4 4
8 8 7 7 7 6 6 6 5 5 5 5 4 4 4 4 4 4 4 3 3 3 3 3 3 3 3 3 3 3 3 3 3 3 3 3 3 3 3 3 4 4 4
7 7 7 7 6 6 6 5 5 5 4 4 4 4 4 4 3 3 3 3 3 3 3 3 3 2 2 2 2 2 2 3 3 2 3 3 3 3 3 3 3 3 4
7 7 6 6 6 6 5 5 5 4 4 4 4 4 3 3 3 3 3 3 3 3 3 2 2 2 2 2 2 2 2 2 2 2 3 3 3 3 3 3 3 3 3
Wind_Speed
2 2 2 2 2 3 2 2 2 2 3 3 3 3 4 4 4 4 4 4 4 5 5 4 5 4 3 3 2 1 1 2 3 4 2 3 3 3 4 4 4 4 4
2 2 2 2 2 2 1 1 2 2 2 2 3 3 3 4 4 3 4 4 4 4 5 5 5 5 4 3 3 2 2 2 3 4 3 3 3 3 3 3 3 3 3
3 3 2 1 2 1 0 1 1 2 2 3 3 3 3 3 3 3 2 3 3 3 4 4 5 5 5 4 4 3 3 3 2 3 4 3 3 2 2 3 3 3 3
3 3 2 1 1 1 0 1 1 1 1 2 2 2 3 3 3 3 3 3 3 4 4 4 4 4 4 5 4 4 3 3 3 3 4 3 3 3 2 2 3 2 3
3 3 2 1 0 0 1 1 1 1 1 1 2 3 3 3 3 3 3 3 3 4 5 5 5 6 7 5 4 3 3 3 3 3 4 3 3 3 3 3 3 3 3
3 2 1 1 1 0 0 1 1 2 2 2 2 3 4 4 7 7 4 3 3 4 5 6 6 6 8 9 9 7 5 4 4 4 4 5 6 5 4 3 3 3 3
3 1 1 1 1 0 0 0 1 2 1 2 3 3 4 6 8 9 8 4 3 4 5 5 6 7 8 5 8 9 8 9 8 6 6 7 6 6 5 5 5 5 6
2 1 1 1 1 0 0 0 1 1 1 2 3 3 4 6 9 9 9 4 3 4 5 5 6 7 7 7 6 7 7 7 8 6 7 8 8 7 7 7 7 5 4
2 2 1 2 2 1 1 2 2 1 2 2 3 3 4 7 9 9 8 3 3 5 5 5 6 6 11 11 7 7 8 8 9 11 11 11 12 12 8 4 4 4 5
3 3 2 2 2 2 2 2 1 1 2 2 3 3 4 6 9 9 8 2 4 5 5 6 9 10 13 13 7 6 9 9 8 8 9 10 8 9 10 7 6 6 5
3 2 2 2 2 2 1 1 1 1 1 2 3 4 4 6 8 10 9 3 4 5 5 5 6 13 15 15 12 7 11 11 7 7 7 7 6 6 6 6 7 7 7
3 2 1 1 1 1 1 1 1 1 1 3 3 5 4 5 6 8 10 9 8 5 6 6 7 14 15 16 12 12 15 13 6 5 6 7 7 6 6 6 7 8 9
3 2 2 1 1 1 1 1 1 1 1 3 3 4 5 5 6 10 11 11 11 6 6 11 13 15 14 11 13 15 12 7 5 6 7 8 7 6 6 5 6 6 8
4 3 2 2 2 1 1 2 2 2 2 3 4 5 5 5 5 5 5 6 8 8 7 10 13 13 9 9 11 9 6 6 6 7 7 7 6 5 6 5 5 5 6
4 3 2 2 2 2 2 3 3 4 5 5 5 5 5 6 8 10 8 6 5 6 7 5 5 6 6 6 6 7 6 6 6 6 7 7 7 6 7 5 5 5 7
4 4 3 2 2 2 2 3 5 6 9 10 9 8 7 10 12 13 13 12 12 12 8 5 6 7 7 7 8 8 7 7 7 7 7 7 7 7 7 6 5 6 8
5 5 3 3 3 3 2 3 5 6 7 8 9 10 10 11 12 12 12 12 11 11 6 6 7 8 8 8 8 8 8 8 7 7 8 8 8 7 7 6 6 7 8
5 5 4 4 4 4 4 4 4 5 6 6 7 10 11 11 12 11 11 9 7 6 5 7 8 8 8 8 9 9 8 8 7 8 8 8 7 7 7 7 7 8 8
5 4 4 4 4 4 4 4 4 5 5 6 6 7 10 9 10 10 9 5 6 7 7 8 8 8 9 9 9 9 9 9 9 8 8 8 7 7 8 8 8 9 8
5 7 5 4 3 4 4 4 5 5 6 6 7 7 6 5 5 6 6 6 7 8 8 9 9 9 9 9 9 9 9 9 9 9 8 8 7 8 9 9 8 8 7
5 5 7 4 4 5 5 5 6 6 6 7 7 8 9 6 7 8 8 7 7 8 9 9 9 9 9 8 9 9 10 9 9 9 9 8 8 8 8 8 8 8 7
5 5 4 5 5 5 5 6 6 6 7 8 7 8 12 7 7 8 8 9 8 8 8 9 9 9 8 8 9 10 10 10 10 9 9 8 8 8 8 8 8 7 7
6 6 5 5 5 7 7 5 6 6 7 7 7 7 7 7 8 8 9 9 9 8 8 8 9 9 9 9 9 9 10 11 10 10 10 10 9 8 8 8 9 9 8
6 6 6 6 5 5 6 6 6 7 7 7 7 8 8 8 9 9 9 9 9 9 9 9 10 12 14 12 11 11 12 12 12 10 12 11 10 9 8 9 9 10 9
6 6 6 6 6 6 6 6 7 7 7 8 8 8 9 9 9 9 9 9 10 10 11 11 10 11 13 15 14 14 16 18 17 13 11 10 11 10 10 10 9 9 9
6 6 6 5 5 6 6 6 7 8 8 8 8 9 9 9 9 10 9 9 10 10 11 10 11 13 15 13 15 17 19 19 18 17 13 10 10 10 10 9 11 10 10
Wind_Direction
117 104 88 75 91 96 80 46 25 14 13 16 11 18 17 13 10 19 11 12 12 2 0 360 346 334 340 336 327 298 254 216 248 280 279 298 301 300 312 312 302 291 283
149 126 110 90 96 91 65 22 21 14 5 7 12 19 12 9 6 11 360 3 1 351 343 347 339 340 337 329 325 310 284 248 235 272 293 301 292 286 292 296 306 294 278
149 136 120 109 105 119 16 355 11 17 12 9 14 6 355 351 352 350 349 345 340 331 328 330 325 333 327 320 315 309 297 294 262 259 278 280 283 293 300 297 292 297 286
147 142 150 177 181 200 281 344 350 357 1 351 350 342 335 332 330 335 340 335 328 323 318 315 314 311 301 307 314 310 306 303 297 279 280 286 277 279 266 275 290 284 284
142 148 180 189 142 85 14 337 340 337 329 328 343 341 334 324 325 328 320 316 314 318 318 311 305 309 313 312 313 308 308 296 292 288 284 288 281 273 262 254 260 277 277
154 172 173 129 109 101 322 341 343 328 327 342 332 326 327 326 330 332 321 303 302 304 307 309 308 309 315 319 314 308 300 291 281 271 273 274 271 262 261 254 246 260 269
146 144 134 140 144 231 293 23 314 299 315 322 316 318 311 309 324 330 325 313 292 290 292 298 307 314 318 309 309 313 304 295 282 265 259 261 264 259 253 256 246 240 246
132 131 136 142 162 185 113 282 285 285 283 291 300 304 306 314 329 331 330 330 295 289 285 281 284 293 298 300 300 301 293 290 282 276 257 256 259 257 243 248 248 254 264
151 169 181 172 169 162 224 267 270 264 279 280 286 297 302 310 324 328 330 319 307 300 294 290 287 284 296 304 300 297 298 294 290 285 281 276 273 273 264 251 243 243 263
192 195 188 171 165 188 228 249 250 245 259 280 293 292 289 296 315 325 327 310 305 304 303 298 300 300 303 306 293 285 289 290 292 295 294 290 283 276 263 237 229 238 251
188 174 173 181 182 200 211 237 265 269 291 299 300 302 296 296 312 322 323 315 290 297 301 301 299 307 306 304 297 277 278 286 282 278 282 284 280 270 260 242 230 229 238
159 160 185 209 219 199 177 265 301 287 296 300 306 309 303 302 309 316 320 316 309 295 294 293 294 305 307 306 300 288 289 292 280 276 279 280 278 274 268 255 245 242 244
160 179 211 219 227 211 196 226 281 280 275 289 291 295 299 302 307 315 318 317 313 305 289 296 303 306 308 307 301 299 298 287 272 271 271 272 267 268 271 267 259 254 259
175 196 209 212 236 246 233 217 223 248 260 272 276 280 288 294 294 297 299 305 308 308 303 303 307 307 301 295 301 303 291 273 269 265 269 271 271 273 269 259 258 257 262
183 200 213 220 230 245 251 240 237 241 237 247 253 256 268 283 283 290 296 294 293 291 304 305 307 309 306 301 299 296 289 282 277 266 267 272 272 273 271 259 250 250 249
187 206 215 221 232 237 257 289 270 259 275 270 267 266 266 268 285 294 297 299 301 304 310 300 297 295 293 292 294 295 289 280 274 269 267 264 265 267 272 265 250 248 252
194 206 213 220 229 241 250 264 290 300 291 282 281 282 278 281 286 291 295 300 301 305 299 287 287 288 288 287 285 283 283 281 275 269 266 264 262 265 265 262 257 253 254
199 214 216 221 230 238 245 250 254 271 293 294 291 290 289 289 288 289 293 303 300 297 277 279 282 282 283 284 284 282 281 282 277 271 266 260 256 261 262 258 257 257 256
200 213 219 224 231 240 248 254 257 260 266 277 290 297 292 293 293 287 291 277 277 281 278 277 277 278 279 280 280 279 278 279 277 272 269 261 255 257 258 256 256 256 255
209 226 225 224 233 244 251 255 260 263 267 271 276 281 292 298 295 292 283 271 273 277 279 279 279 277 277 278 280 278 277 277 277 274 269 263 257 256 254 254 254 254 253
210 228 237 239 236 242 248 252 256 259 264 269 272 274 275 279 277 280 281 278 275 276 278 278 279 279 277 277 280 277 275 275 273 273 268 261 258 259 255 252 253 254 251
206 218 224 232 240 245 253 254 257 261 265 270 278 283 283 276 274 277 277 278 274 272 275 277 279 276 274 275 278 277 276 276 275 275 272 264 259 258 254 253 251 252 249
208 219 230 238 242 255 262 259 260 262 265 268 273 277 279 276 276 275 277 279 278 277 276 277 279 279 277 275 273 271 272 273 272 272 274 269 260 257 252 250 249 253 251
211 221 231 240 243 245 253 260 260 262 264 268 272 273 273 274 276 278 281 283 281 279 278 277 277 277 278 282 280 274 271 271 273 272 270 266 260 257 253 249 249 251 250
215 224 231 237 241 245 251 257 260 263 265 269 274 276 276 276 279 282 283 283 282 282 280 280 281 281 281 282 282 279 277 275 273 273 271 266 257 251 249 248 249 251 249
218 225 232 235 238 242 247 254 260 263 266 271 274 275 276 278 280 282 283 283 285 285 285 284 282 283 285 285 286 286 285 281 277 273 269 262 254 249 243 243 246 243 243
Height
1548 1547 1547 1547 1547 1547 1547 1546 1546 1545 1545 1544 1543 1542 1540 1539 1538 1537 1536 1534 1533 1532 1530 1529 1528 1527 1526 1525 1524 1523 1523 1522 1520 1519 1519 1519 1519 1518 1518 1518 1518 1518 1518
1547 1547 1546 1546 1546 1546 1546 1546 1546 1545 1544 1543 1542 1541 1540 1539 1537 1536 1534 1533 1532 1530 1529 1528 1526 1525 1524 1523 1522 1521 1520 1519 1518 1516 1516 1516 1516 1516 1515 1515 1515 1515 1515
1546 1546 1545 1545 1545 1545 1545 1545 1545 1544 1543 1542 1541 1540 1539 1538 1536 1535 1533 1532 1530 1529 1527 1526 1525 1523 1522 1521 1519 1519 1518 1517 1515 1514 1512 1512 1512 1512 1512 1511 1511 1511 1511
1544 1544 1544 1544 1544 1544 1545 1544 1544 1543 1542 1541 1540 1539 1538 1536 1535 1533 1532 1530 1529 1527 1526 1524 1523 1521 1520 1518 1517 1516 1515 1513 1512 1511 1509 1509 1508 1508 1508 1507 1507 1507 1507
1543 1543 1543 1543 1543 1543 1543 1543 1542 1542 1541 1540 1539 1538 1536 1535 1533 1532 1530 1528 1526 1525 1523 1522 1520 1519 1517 1516 1514 1513 1511 1510 1509 1507 1506 1505 1504 1504 1504 1504 1503 1503 1503
1541 1541 1541 1541 1542 1542 1541 1541 1541 1540 1539 1538 1537 1536 1534 1533 1531 1529 1528 1526 1524 1522 1520 1519 1517 1516 1514 1512 1511 1510 1508 1507 1505 1503 1502 1501 1500 1500 1500 1500 1499 1499 1498
1539 1540 1540 1540 1540 1540 1539 1539 1539 1538 1537 1536 1535 1533 1532 1530 1529 1527 1525 1523 1521 1519 1517 1515 1514 1512 1510 1508 1507 1505 1504 1502 1501 1500 1497 1496 1496 1495 1495 1495 1495 1494 1494
1537 1538 1538 1538 1538 1538 1537 1537 1536 1535 1534 1533 1532 1531 1529 1528 1526 1524 1522 1520 1518 1516 1514 1512 1510 1508 1506 1504 1501 1500 1498 1497 1496 1494 1492 1491 1491 1490 1490 1490 1489 1489 1489
1535 1535 1536 1536 1536 1535 1535 1534 1534 1533 1532 1530 1529 1528 1526 1525 1523 1520 1518 1516 1514 1512 1510 1508 1506 1504 1502 1499 1497 1494 1492 1491 1490 1488 1487 1485 1485 1484 1484 1484 1483 1483 1482
1533 1533 1533 1533 1533 1532 1532 1531 1531 1530 1529 1527 1526 1525 1523 1521 1519 1517 1515 1512 1510 1508 1506 1504 1502 1499 1497 1495 1492 1489 1487 1484 1483 1481 1480 1479 1478 1478 1478 1478 1477 1477 1476
1530 1531 1531 1530 1530 1530 1529 1529 1528 1527 1525 1524 1523 1521 1519 1517 1515 1513 1511 1509 1506 1503 1501 1499 1496 1494 1491 1489 1487 1484 1482 1479 1477 1475 1473 1471 1471 1470 1470 1470 1470 1470 1470
1527 1528 1528 1528 1527 1527 1526 1525 1525 1523 1522 1520 1519 1517 1515 1514 1512 1509 1507 1505 1502 1499 1496 1493 1491 1488 1486 1483 1481 1478 1476 1473 1471 1469 1467 1465 1463 1462 1462 1462 1462 1462 1462
1524 1524 1524 1524 1524 1524 1523 1522 1521 1520 1518 1516 1514 1512 1511 1509 1507 1505 1503 1500 1497 1494 1491 1488 1485 1482 1479 1477 1474 1471 1469 1467 1464 1462 1460 1458 1457 1455 1454 1454 1454 1454 1454
1520 1521 1521 1521 1520 1520 1519 1518 1517 1515 1514 1512 1510 1508 1506 1504 1502 1500 1497 1495 1492 1489 1485 1482 1479 1476 1473 1470 1467 1465 1462 1460 1458 1455 1453 1451 1449 1448 1447 1446 1446 1446 1445
1517 1517 1517 1517 1517 1516 1515 1514 1513 1512 1510 1508 1506 1504 1501 1499 1497 1495 1492 1489 1486 1483 1479 1476 1472 1469 1466 1463 1461 1458 1455 1453 1451 1449 1446 1444 1442 1441 1439 1439 1439 1438 1438
1513 1513 1513 1513 1513 1512 1511 1510 1509 1508 1506 1504 1502 1500 1497 1495 1492 1489 1487 1484 1480 1477 1474 1470 1466 1463 1460 1457 1454 1451 1448 1446 1444 1442 1440 1438 1436 1434 1432 1432 1432 1431 1430
1509 1509 1509 1509 1508 1507 1506 1505 1503 1502 1501 1499 1497 1495 1492 1489 1486 1484 1480 1477 1474 1471 1468 1464 1460 1457 1453 1450 1447 1444 1441 1439 1437 1435 1432 1430 1429 1427 1426 1425 1424 1423 1422
1505 1505 1505 1504 1504 1503 1501 1500 1498 1496 1494 1492 1491 1489 1486 1483 1481 1478 1474 1471 1467 1465 1461 1458 1454 1451 1447 1444 1440 1438 1434 1432 1430 1427 1425 1423 1422 1420 1419 1418 1417 1416 1415
1500 1500 1500 1500 1499 1498 1496 1495 1493 1491 1488 1486 1484 1482 1480 1477 1474 1471 1468 1465 1461 1457 1454 1451 1447 1444 1440 1437 1433 1430 1427 1424 1422 1420 1417 1416 1414 1413 1412 1411 1410 1408 1408
1495 1495 1495 1494 1493 1492 1491 1489 1487 1485 1482 1480 1477 1475 1472 1469 1466 1463 1461 1458 1454 1450 1447 1443 1440 1436 1433 1429 1426 1423 1420 1417 1414 1412 1409 1408 1407 1406 1404 1403 1402 1401 1401
1489 1489 1489 1488 1487 1486 1485 1483 1481 1478 1476 1473 1471 1469 1466 1463 1459 1456 1453 1450 1447 1443 1439 1436 1432 1428 1425 1422 1418 1415 1412 1409 1407 1404 1402 1400 1399 1398 1397 1396 1395 1394 1394
1483 1483 1483 1482 1481 1480 1478 1476 1474 1472 1469 1466 1463 1461 1459 1456 1453 1449 1446 1442 1439 1435 1432 1428 1424 1420 1417 1414 1411 1407 1404 1401 1399 1397 1394 1392 1391 1390 1389 1389 1388 1387 1387
1477 1477 1476 1475 1474 1473 1471 1469 1467 1465 1462 1460 1457 1454 1451 1448 1445 1442 1438 1434 1431 1427 1424 1420 1416 1412 1409 1406 1403 1399 1396 1393 1391 1389 1387 1385 1383 1382 1382 1381 1381 1380 1380
1471 1471 1470 1469 1468 1466 1464 1462 1460 1458 1456 1453 1450 1447 1444 1441 1438 1434 1430 1426 1422 1419 1415 1411 1408 1404 1401 1397 1394 1391 1388 1386 1384 1381 1379 1377 1376 1375 1374 1374 1373 1373 1373
1465 1464 1463 1462 1461 1459 1457 1456 1454 1451 1449 1446 1443 1440 1437 1433 1430 1426 1422 1418 1414 1410 1406 1403 1399 1396 1392 1389 1386 1383 1380 1377 1375 1373 1370 1368 1367 1366 1366 1366 1366 1366 1366
1458 1457 1456 1455 1454 1452 1451 1449 1447 1444 1442 1439 1436 1432 1429 1425 1421 1418 1414 1410 1406 1402 1397 1394 1390 1387 1383 1380 1377 1374 1371 1368 1366 1364 1362 1360 1359 1358 1358 1358 1358 1358 1358